Find Starlink 3784

NORAD ID: 52275 Int'l Des: 2022-041 Owner: SPXS Country: US Constellation: starlink operational
LEOCIRCULAR

当前视图

正在加载3D地球...

About Starlink 3784

Starlink 3784 (NORAD 52275) is a starlink constellation satellite (v1.5) launched Apr 21, 2022 by SPXS of US. It operates in LEO, CIRCULAR orbit with a mass of 297.00 kg.

即将过境

Passes for default location (London). Set your location on the main map for personalized predictions.

高度历史

Loading altitude history...

两行轨道根数

1 52275U 22041Q 26254.31108251 .00000407 00000-0 23183-4 0 9992
2 52275 53.1622 350.5758 0001230 88.3780 271.7363 15.34384063242458
Epoch: Sep 11, 2026 • Age: 10 hours

当前状态

高度 464.7 km
远地点 / 近地点 N/A
速度 7.63 km/s
星下点 -5.93°S, 82.6°W
发射日期 Apr 21, 2022
运行时间 4.3 years
类型 internet

技术详情

分类 Payload
质量 297.00 kg
干质量 275.00 kg
总质量 297.00 kg
长度 0.20 m
直径 2.80 m
跨度 9.00 m
形状 Box + pan
制造商 SPXS
平台类型 Starlink
阶段状态 In Orbit
所有者/国家 SPXS/US

Most Searched